User: anonymous   Login
Location: Unspecified
(0.0000°N, 0.0000°E)
Time: 12:37:44
(UTC+00:00)
Language:

Polar BEAR P87-1 - Orbit

View from above orbital plane
View from above orbital plane
View from above satellite
View from above satellite

Ground track
Ground track

The orbit data is extracted from the following two-line orbital elements,

1 17070U 86088A   18171.83698223 +.00000045 +00000-0 +35072-4 0  9994
2 17070 089.5297 308.9095 0040781 077.1268 076.3785 13.74757618584408
Epoch (UTC): 20 June 2018 20:05:15
Eccentricity: 0.0040781
inclination: 89.5297°
perigee height: 952 km
apogee height: 1012 km
right ascension of ascending node: 308.9095°
argument of perigee: 77.1268°
revolutions per day: 13.74757618
mean anomaly at epoch: 76.3785°
orbit number at epoch: 58440

The dashed part of the orbit path shows where the satellite is in the earth's shadow,  

DLR